﻿Дата;Google;AdRiver
2021-11-28;2;0
2021-01-06;1;0
2020-10-08;1;0
2020-03-14;1;0
2020-03-12;1;0
2020-03-11;1;0
2019-11-19;1;0
2019-05-07;1;0
2019-02-19;1;0
2019-02-18;2;0
2019-02-04;1;0
2019-01-22;1;0
2019-01-21;1;0
2018-12-31;6;0
2018-12-06;1;0
2018-12-01;7;0
2018-11-30;16;0
2018-11-28;7;0
2018-11-27;8;0
2018-11-22;1;0
2018-11-21;6;0
2018-11-20;1;0
2018-11-17;1;0
2018-11-16;9;0
2018-11-15;10;0
2018-11-14;1;0
2018-11-09;9;0
2018-11-08;5;0
2018-11-07;5;0
2018-10-29;7;0
2018-10-25;13;0
2018-09-29;3;0
2018-09-28;3;0
2018-09-26;2;0
2018-09-25;2;0
2018-09-24;11;0
2018-09-18;1;0
2018-09-07;1;0
2018-03-21;1;0
2014-03-05;9;0
2013-12-19;6;0
2013-12-18;7;0
2013-12-16;9;0
2013-12-15;5;0
2013-12-14;6;0
2013-12-13;4;0
2013-12-12;2;0
2013-12-11;4;0
2013-12-10;1;0
2013-07-14;8;0
2013-07-13;6;0
2013-07-12;7;0
2013-07-11;10;0
2013-07-10;11;0
2013-07-09;8;0
2013-07-08;11;0
2013-07-07;17;0
2013-07-06;6;0
2013-07-05;2;0
2013-07-04;6;0
2013-07-02;2;0
2013-06-30;11;0
2013-06-29;5;0
2013-06-28;4;0
2013-06-27;3;0
2013-06-26;3;0
2013-06-25;11;0
2013-06-24;12;0
2013-06-23;11;0
2013-06-22;6;0
2013-06-21;2;0
2013-06-20;3;0
2013-06-19;3;0
2013-06-18;10;0
2013-06-17;6;0
2013-06-12;4;0
2013-06-11;2;0
2013-06-10;7;0
2013-06-09;3;0
2013-06-08;3;0
2013-06-07;1;0
2013-06-06;4;0
2013-06-05;4;0
2013-06-04;4;0
2013-06-03;4;0
2013-06-02;7;0
2013-06-01;6;0
2013-05-31;5;0
2013-05-30;1;0
2013-05-29;1;0
2013-05-06;9;0
2013-05-05;7;0
2013-05-04;7;0
2013-05-03;12;0
2013-05-02;4;0
2013-05-01;2;0
2013-04-30;8;0
2013-04-29;5;0
2013-04-28;7;0
2013-04-27;6;0
2013-04-26;10;0
2013-04-25;12;0
2013-04-24;10;0
2013-04-23;10;0
2013-04-22;7;0
2013-04-21;9;0
2013-04-20;4;0
2013-04-19;1;0
2013-04-18;6;0
2013-04-17;5;0
2013-04-16;1;0
2013-04-14;4;0
2013-04-13;2;0
2013-04-12;3;0
2013-04-11;3;0
2013-04-10;5;0
2013-04-09;2;0
2013-04-08;5;0
2013-04-07;4;0
2013-04-06;1;0
2013-04-05;1;0
2013-04-04;1;0
2013-04-03;7;0
2013-04-02;4;0
2013-04-01;5;0
2013-03-31;6;0
2013-03-30;4;0
2013-03-29;11;0
2013-03-28;12;0
2013-03-27;10;0
2013-03-26;12;0
2013-03-25;15;0
2013-03-24;20;0
2013-03-23;10;0
2013-03-22;2;0
2013-03-21;4;0
2013-03-20;4;0
2013-03-19;15;0
2013-03-18;8;0
2013-03-17;13;0
2013-03-16;10;0
2013-03-15;6;0
2013-03-14;6;0
2013-03-13;9;0
2013-03-12;15;0
2013-03-11;14;0
2013-03-10;15;0
2013-03-09;20;0
2013-03-08;10;0
2013-03-07;7;0
2013-03-06;11;0
2013-03-05;15;0
2013-03-04;16;0
2013-03-03;19;0
2013-03-02;10;0
2013-03-01;8;0
2013-02-28;6;0
2013-02-27;7;0
2013-02-26;13;0
2013-02-25;7;0
2013-02-24;4;0
2013-02-23;5;0
2013-02-22;6;0
2013-02-21;7;0
2013-02-20;30;0
2013-02-19;32;1
2013-02-18;14;0
2013-02-03;8;0
2013-02-02;19;0
2013-02-01;21;0
2013-01-31;17;0
2013-01-30;31;0
2013-01-29;22;0
2013-01-28;13;0
2013-01-27;23;0
2013-01-26;44;0
2013-01-25;44;0
2013-01-24;60;0
2013-01-23;13;0
2013-01-22;46;0
2013-01-21;4;0
2013-01-20;21;0
2013-01-19;15;0
2013-01-18;41;0
2013-01-17;43;0
2013-01-16;47;0
2013-01-15;38;0
2013-01-14;33;0
2013-01-13;21;0
2013-01-12;15;0
